Location: Alvis C Story Elementary School
(33.0968°N, 96.6364°W)
Time: 14:23:38
(UTC+00:00)

Sich 1 - Pass Details

Date: 08 December 2021
Orbit: 595 x 623 km, 82.5° (Epoch: 25 January)

Event Time Altitude Azimuth Distance (km) Brightness Sun altitude
Rises 12:22:46 0° 183° (S) 2,833 6.7 -11.4°
Reaches altitude 10° 12:24:58 10° 183° (S) 1,931 5.8 -10.9°
Maximum altitude 12:29:14 84° 95° (E) 605 3.1 -10.1°
Drops below altitude 10° 12:33:30 10° 8° (N) 1,934 5.5 -9.3°
Sets 12:35:42 0° 8° (N) 2,839 6.3 -8.8°
